| time (UTC) | temp F | wind direction | speed MPH | gust MPH | rain 1hr in | rain 24hr in | rain mn in | humidity % | barometer mb |
| 20260906064415 | 76 | 213 | 0.0 | 1.0 | 0.00 | 0.00 | 0.00 | 95 | 1011.7 |
| 20260906063916 | 76 | 213 | 0.0 | 1.0 | 0.00 | 0.00 | 0.00 | 95 | 1011.7 |
| 20260906063415 | 76 | 213 | 0.0 | 0.0 | 0.00 | 0.00 | 0.00 | 95 | 1011.6 |
| 20260906062915 | 76 | 213 | 0.0 | 0.0 | 0.00 | 0.00 | 0.00 | 95 | 1011.6 |
| 20260906062415 | 76 | 213 | 0.0 | 0.0 | 0.00 | 0.00 | 0.00 | 95 | 1011.6 |
| 20260906061915 | 76 | 213 | 0.0 | 0.0 | 0.00 | 0.00 | 0.00 | 95 | 1011.7 |
| 20260906061416 | 76 | 213 | 0.0 | 0.0 | 0.00 | 0.00 | 0.00 | 94 | 1011.8 |
| 20260906060914 | 76 | 213 | 0.0 | 0.0 | 0.00 | 0.00 | 0.00 | 94 | 1011.7 |
| 20260906060413 | 76 | 213 | 0.0 | 0.0 | 0.00 | 0.00 | 0.00 | 94 | 1011.7 |
| 20260906055912 | 76 | 213 | 0.0 | 0.0 | 0.00 | 0.00 | 0.00 | 94 | 1011.8 |
| 20260906055413 | 76 | 213 | 0.0 | 0.0 | 0.00 | 0.00 | 0.00 | 94 | 1011.9 |
| 20260906054913 | 76 | 213 | 0.0 | 0.0 | 0.00 | 0.00 | 0.00 | 94 | 1012.0 |
| 20260906054412 | 76 | 213 | 0.0 | 0.0 | 0.00 | 0.00 | 0.00 | 94 | 1011.8 |
| 20260906053913 | 76 | 213 | 0.0 | 0.0 | 0.00 | 0.00 | 0.00 | 94 | 1011.8 |
| 20260906053413 | 76 | 213 | 0.0 | 0.0 | 0.00 | 0.00 | 0.00 | 94 | 1011.9 |
| 20260906052913 | 76 | 212 | 0.0 | 0.0 | 0.00 | 0.00 | 0.00 | 94 | 1011.8 |
| 20260906052644 | 76 | 213 | 0.0 | 0.0 | 0.00 | 0.00 | 0.00 | 94 | 1011.8 |
| 20260906051913 | 76 | 213 | 0.0 | 0.0 | 0.00 | 0.00 | 0.00 | 94 | 1011.9 |
| 20260906051411 | 76 | 213 | 0.0 | 0.0 | 0.00 | 0.00 | 0.00 | 94 | 1012.0 |
| 20260906050912 | 76 | 213 | 0.0 | 0.0 | 0.00 | 0.00 | 0.00 | 94 | 1012.2 |
| 20260906050411 | 77 | 213 | 0.0 | 0.0 | 0.00 | 0.00 | 0.00 | 94 | 1012.2 |
| 20260906045910 | 77 | 213 | 0.0 | 0.0 | 0.00 | 0.00 | 0.00 | 94 | 1012.2 |
| 20260906045410 | 77 | 213 | 0.0 | 0.0 | 0.00 | 0.00 | 0.00 | 94 | 1012.2 |
| 20260906044910 | 77 | 213 | 0.0 | 0.0 | 0.00 | 0.00 | 0.00 | 94 | 1012.2 |
| 20260906044409 | 77 | 213 | 0.0 | 0.0 | 0.00 | 0.00 | 0.00 | 94 | 1012.2 |
| 20260906043910 | 77 | 213 | 0.0 | 0.0 | 0.00 | 0.00 | 0.00 | 94 | 1012.3 |
| 20260906043409 | 77 | 213 | 0.0 | 0.0 | 0.00 | 0.00 | 0.00 | 94 | 1012.4 |
| 20260906042909 | 77 | 213 | 0.0 | 0.0 | 0.00 | 0.00 | 0.00 | 93 | 1012.5 |
| 20260906042410 | 77 | 213 | 0.0 | 0.0 | 0.00 | 0.00 | 0.00 | 93 | 1012.5 |
| 20260906042140 | 77 | 213 | 0.0 | 0.0 | 0.00 | 0.00 | 0.00 | 93 | 1012.5 |
| 20260906041409 | 77 | 213 | 0.0 | 0.0 | 0.00 | 0.00 | 0.00 | 93 | 1012.5 |
| 20260906040909 | 77 | 213 | 0.0 | 0.0 | 0.00 | 0.00 | 0.00 | 93 | 1012.5 |
| 20260906040410 | 77 | 213 | 0.0 | 0.0 | 0.00 | 0.00 | 0.00 | 93 | 1012.5 |
| 20260906040140 | 78 | 213 | 0.0 | 0.0 | 0.00 | 0.00 | 0.00 | 93 | 1012.6 |
| 20260906035641 | 78 | 213 | 0.0 | 0.0 | 0.00 | 0.00 | 0.00 | 92 | 1012.6 |
| 20260906035140 | 78 | 213 | 0.0 | 0.0 | 0.00 | 0.00 | 0.00 | 92 | 1012.7 |
| 20260906034410 | 78 | 213 | 0.0 | 0.0 | 0.00 | 0.00 | 0.00 | 92 | 1012.8 |
| 20260906033909 | 78 | 213 | 0.0 | 0.0 | 0.00 | 0.00 | 0.00 | 92 | 1012.7 |
| 20260906033410 | 78 | 213 | 0.0 | 0.0 | 0.00 | 0.00 | 0.00 | 92 | 1012.7 |
| 20260906032910 | 78 | 212 | 0.0 | 0.0 | 0.00 | 0.00 | 0.00 | 92 | 1012.7 |
| 20260906032409 | 78 | 213 | 0.0 | 0.0 | 0.00 | 0.00 | 0.00 | 91 | 1012.6 |
| 20260906031913 | 78 | 213 | 0.0 | 0.0 | 0.00 | 0.00 | 0.00 | 91 | 1012.6 |
| 20260906031909 | 78 | 213 | 0.0 | 0.0 | 0.00 | 0.00 | 0.00 | 91 | 1012.6 |
| 20260906031407 | 78 | 213 | 0.0 | 0.0 | 0.00 | 0.00 | 0.00 | 91 | 1012.6 |
| 20260906030406 | 79 | 213 | 0.0 | 0.0 | 0.00 | 0.00 | 0.00 | 90 | 1012.6 |
| 20260906025906 | 79 | 213 | 0.0 | 0.0 | 0.00 | 0.00 | 0.00 | 90 | 1012.5 |
| 20260906025405 | 79 | 213 | 0.0 | 0.0 | 0.00 | 0.00 | 0.00 | 89 | 1012.5 |
| 20260906024905 | 80 | 213 | 0.0 | 0.0 | 0.00 | 0.00 | 0.00 | 89 | 1012.4 |
| 20260906024406 | 80 | 213 | 0.0 | 0.0 | 0.00 | 0.00 | 0.00 | 88 | 1012.4 |
| 20260906023905 | 80 | 213 | 0.0 | 0.0 | 0.00 | 0.00 | 0.00 | 87 | 1012.3 |
| 20260906023404 | 80 | 213 | 0.0 | 0.0 | 0.00 | 0.00 | 0.00 | 86 | 1012.2 |
| 20260906022901 | 81 | 213 | 0.0 | 0.0 | 0.00 | 0.00 | 0.00 | 85 | 1012.2 |
| 20260906022401 | 81 | 213 | 0.0 | 0.0 | 0.00 | 0.00 | 0.00 | 85 | 1012.0 |
| 20260906021901 | 82 | 213 | 0.0 | 0.0 | 0.00 | 0.00 | 0.00 | 84 | 1011.9 |
| 20260906021358 | 82 | 213 | 0.0 | 4.0 | 0.00 | 0.00 | 0.00 | 83 | 1011.8 |
| 20260906021129 | 83 | 213 | 0.0 | 4.0 | 0.00 | 0.00 | 0.00 | 82 | 1011.8 |
| 20260906020628 | 83 | 211 | 0.0 | 2.0 | 0.00 | 0.00 | 0.00 | 82 | 1011.7 |
| 20260906015853 | 83 | 213 | 1.0 | 4.0 | 0.00 | 0.00 | 0.00 | 81 | 1011.7 |
| 20260906015353 | 83 | 221 | 1.0 | 4.0 | 0.00 | 0.00 | 0.00 | 81 | 1011.6 |
| 20260906014854 | 83 | 204 | 1.0 | 5.0 | 0.00 | 0.00 | 0.00 | 81 | 1011.6 |
| 20260906014625 | 83 | 230 | 1.0 | 5.0 | 0.00 | 0.00 | 0.00 | 81 | 1011.6 |
| 20260906013851 | 83 | 241 | 0.0 | 4.0 | 0.00 | 0.00 | 0.00 | 81 | 1011.7 |
| 20260906013350 | 83 | 233 | 1.0 | 4.0 | 0.00 | 0.00 | 0.00 | 80 | 1011.5 |
| 20260906012849 | 83 | 235 | 1.0 | 6.0 | 0.00 | 0.00 | 0.00 | 80 | 1011.5 |
| 20260906012347 | 83 | 250 | 1.0 | 6.0 | 0.00 | 0.00 | 0.00 | 80 | 1011.6 |
| 20260906011846 | 83 | 213 | 1.0 | 4.0 | 0.00 | 0.00 | 0.00 | 80 | 1011.5 |
| 20260906011346 | 83 | 199 | 0.0 | 3.0 | 0.00 | 0.00 | 0.00 | 81 | 1011.6 |
| 20260906010847 | 83 | 214 | 0.0 | 3.0 | 0.00 | 0.00 | 0.00 | 81 | 1011.5 |
| 20260906010843 | 83 | 175 | 0.0 | 3.0 | 0.00 | 0.00 | 0.00 | 81 | 1011.6 |
| 20260906005841 | 83 | 217 | 0.0 | 2.0 | 0.00 | 0.00 | 0.00 | 81 | 1011.6 |
| 20260906005342 | 83 | 206 | 0.0 | 2.0 | 0.00 | 0.00 | 0.00 | 81 | 1011.6 |
| 20260906004841 | 83 | 207 | 0.0 | 4.0 | 0.00 | 0.00 | 0.00 | 82 | 1011.5 |
| 20260906004837 | 83 | 213 | 0.0 | 3.0 | 0.00 | 0.00 | 0.00 | 82 | 1011.6 |
| 20260906003837 | 83 | 236 | 0.0 | 4.0 | 0.00 | 0.00 | 0.00 | 82 | 1011.5 |
| 20260906003605 | 83 | 227 | 0.0 | 2.0 | 0.00 | 0.00 | 0.00 | 83 | 1011.5 |
| 20260906003104 | 83 | 212 | 0.0 | 1.0 | 0.00 | 0.00 | 0.00 | 83 | 1011.5 |
| 20260906002333 | 83 | 212 | 0.0 | 1.0 | 0.00 | 0.00 | 0.00 | 83 | 1011.5 |
| 20260906001834 | 83 | 212 | 0.0 | 1.0 | 0.00 | 0.00 | 0.00 | 82 | 1011.4 |
| 20260906001333 | 83 | 212 | 0.0 | 1.0 | 0.00 | 0.00 | 0.00 | 82 | 1011.3 |
| 20260906000833 | 83 | 226 | 0.0 | 1.0 | 0.00 | 0.00 | 0.00 | 82 | 1011.4 |
| 20260906000334 | 83 | 226 | 0.0 | 2.0 | 0.00 | 0.00 | 0.00 | 81 | 1011.6 |
| 20260905235833 | 84 | 226 | 0.0 | 2.0 | 0.00 | 0.00 | 0.00 | 81 | 1011.7 |
| 20260905235333 | 84 | 227 | 0.0 | 1.0 | 0.00 | 0.00 | 0.00 | 81 | 1011.7 |
| 20260905235103 | 84 | 227 | 0.0 | 1.0 | 0.00 | 0.00 | 0.00 | 81 | 1011.6 |
| 20260905234935 | 85 | 227 | 0.0 | 1.0 | 0.00 | 0.00 | 0.00 | 80 | 1011.6 |
| 20260905233829 | 85 | 227 | 0.0 | 1.0 | 0.00 | 0.00 | 0.00 | 78 | 1011.5 |
| 20260905233328 | 85 | 226 | 0.0 | 1.0 | 0.00 | 0.00 | 0.00 | 78 | 1011.4 |
| 20260905233058 | 85 | 222 | 0.0 | 1.0 | 0.00 | 0.00 | 0.00 | 78 | 1011.4 |
| 20260905232324 | 86 | 259 | 0.0 | 2.0 | 0.00 | 0.00 | 0.00 | 77 | 1011.4 |
| 20260905231823 | 86 | 259 | 0.0 | 3.0 | 0.00 | 0.00 | 0.00 | 77 | 1011.3 |
| 20260905231321 | 86 | 245 | 0.0 | 3.0 | 0.00 | 0.00 | 0.00 | 78 | 1011.3 |
| 20260905230822 | 86 | 203 | 0.0 | 1.0 | 0.00 | 0.00 | 0.00 | 78 | 1011.3 |
| 20260905230317 | 86 | 203 | 0.0 | 1.0 | 0.00 | 0.00 | 0.00 | 77 | 1011.3 |
| 20260905225818 | 86 | 224 | 0.0 | 2.0 | 0.00 | 0.00 | 0.00 | 77 | 1011.2 |
| 20260905225315 | 87 | 224 | 0.0 | 2.0 | 0.00 | 0.00 | 0.00 | 76 | 1011.2 |
| 20260905224815 | 87 | 285 | 0.0 | 3.0 | 0.00 | 0.00 | 0.00 | 76 | 1011.2 |
| 20260905224316 | 87 | 227 | 0.0 | 3.0 | 0.00 | 0.00 | 0.00 | 75 | 1011.2 |
| 20260905223816 | 87 | 258 | 0.0 | 2.0 | 0.00 | 0.00 | 0.00 | 75 | 1011.3 |
| 20260905223315 | 87 | 259 | 0.0 | 2.0 | 0.00 | 0.00 | 0.00 | 74 | 1011.5 |
| 20260905222816 | 88 | 215 | 0.0 | 3.0 | 0.00 | 0.00 | 0.00 | 74 | 1011.4 |
| 20260905222315 | 88 | 213 | 0.0 | 3.0 | 0.00 | 0.00 | 0.00 | 73 | 1011.5 |
| 20260905221815 | 88 | 268 | 0.0 | 2.0 | 0.00 | 0.00 | 0.00 | 72 | 1011.6 |
| 20260905221316 | 89 | 235 | 1.0 | 3.0 | 0.00 | 0.00 | 0.00 | 72 | 1011.7 |
| 20260905221046 | 89 | 218 | 1.0 | 4.0 | 0.00 | 0.00 | 0.00 | 72 | 1011.7 |
| 20260905220316 | 89 | 218 | 1.0 | 4.0 | 0.00 | 0.00 | 0.00 | 69 | 1011.8 |
| 20260905215815 | 89 | 220 | 1.0 | 4.0 | 0.00 | 0.00 | 0.00 | 69 | 1011.8 |
| 20260905215315 | 90 | 228 | 1.0 | 4.0 | 0.00 | 0.00 | 0.00 | 70 | 1011.8 |
| 20260905214814 | 90 | 225 | 1.0 | 4.0 | 0.00 | 0.00 | 0.00 | 69 | 1011.8 |
| 20260905214544 | 90 | 205 | 1.0 | 4.0 | 0.00 | 0.00 | 0.00 | 70 | 1011.7 |
| 20260905213813 | 90 | 203 | 1.0 | 4.0 | 0.00 | 0.00 | 0.00 | 70 | 1011.7 |
| 20260905213314 | 89 | 207 | 1.0 | 3.0 | 0.00 | 0.00 | 0.00 | 73 | 1011.8 |
| 20260905213044 | 89 | 202 | 1.0 | 3.0 | 0.00 | 0.00 | 0.00 | 72 | 1011.8 |
| 20260905212310 | 88 | 206 | 1.0 | 3.0 | 0.00 | 0.00 | 0.00 | 74 | 1011.9 |
| 20260905212040 | 88 | 212 | 1.0 | 4.0 | 0.00 | 0.00 | 0.00 | 75 | 1012.0 |
| 20260905211310 | 87 | 211 | 1.0 | 4.0 | 0.00 | 0.04 | 0.00 | 75 | 1012.3 |
| 20260905210809 | 87 | 203 | 1.0 | 3.0 | 0.00 | 0.13 | 0.00 | 77 | 1012.3 |
| 20260905210310 | 87 | 78 | 1.0 | 3.0 | 0.00 | 0.18 | 0.00 | 77 | 1012.3 |
| 20260905205809 | 86 | 139 | 1.0 | 3.0 | 0.00 | 0.23 | 0.00 | 78 | 1012.0 |
| 20260905205308 | 87 | 96 | 1.0 | 3.0 | 0.00 | 0.28 | 0.00 | 77 | 1011.9 |
| 20260905204808 | 87 | 191 | 1.0 | 4.0 | 0.00 | 0.29 | 0.00 | 77 | 1011.9 |
| 20260905204538 | 87 | 198 | 1.0 | 4.0 | 0.00 | 0.29 | 0.00 | 76 | 1011.8 |
| 20260905203807 | 88 | 101 | 1.0 | 3.0 | 0.00 | 0.29 | 0.00 | 76 | 1011.8 |
| 20260905203308 | 88 | 212 | 0.0 | 3.0 | 0.00 | 0.30 | 0.00 | 76 | 1011.9 |
| 20260905203038 | 87 | 207 | 0.0 | 2.0 | 0.00 | 0.30 | 0.00 | 75 | 1012.0 |
| 20260905202307 | 87 | 243 | 0.0 | 1.0 | 0.00 | 0.30 | 0.00 | 76 | 1012.0 |
| 20260905201807 | 86 | 243 | 0.0 | 1.0 | 0.00 | 0.30 | 0.00 | 77 | 1012.0 |
| 20260905201543 | 86 | 243 | 1.0 | 3.0 | 0.00 | 0.30 | 0.00 | 79 | 1012.2 |
| 20260905201307 | 86 | 243 | 0.0 | 2.0 | 0.00 | 0.30 | 0.00 | 79 | 1012.2 |
| 20260905200912 | 86 | 74 | 1.0 | 3.0 | 0.00 | 0.30 | 0.00 | 79 | 1012.2 |
| 20260905195807 | 86 | 328 | 1.0 | 3.0 | 0.00 | 0.30 | 0.00 | 80 | 1012.2 |
| 20260905195308 | 86 | 77 | 1.0 | 3.0 | 0.00 | 0.30 | 0.00 | 79 | 1012.3 |
| 20260905194805 | 86 | 34 | 1.0 | 3.0 | 0.00 | 0.30 | 0.00 | 77 | 1012.5 |
| 20260905194537 | 87 | 11 | 0.0 | 2.0 | 0.00 | 0.30 | 0.00 | 75 | 1012.6 |
| 20260905193805 | 88 | 321 | 0.0 | 1.0 | 0.00 | 0.30 | 0.00 | 76 | 1012.6 |
| 20260905193305 | 87 | 332 | 0.0 | 2.0 | 0.00 | 0.30 | 0.00 | 75 | 1012.7 |
| 20260905192805 | 86 | 352 | 0.0 | 3.0 | 0.00 | 0.30 | 0.00 | 74 | 1012.8 |
| 20260905192306 | 86 | 2 | 1.0 | 4.0 | 0.00 | 0.30 | 0.00 | 75 | 1013.0 |
| 20260905191805 | 87 | 173 | 1.0 | 4.0 | 0.00 | 0.30 | 0.00 | 76 | 1012.9 |
| 20260905191304 | 87 | 327 | 0.0 | 3.0 | 0.00 | 0.30 | 0.00 | 77 | 1012.8 |
| 20260905191034 | 87 | 269 | 1.0 | 5.0 | 0.00 | 0.30 | 0.00 | 77 | 1013.0 |
| 20260905190531 | 88 | 278 | 1.0 | 5.0 | 0.00 | 0.30 | 0.00 | 73 | 1013.0 |
| 20260905190030 | 89 | 323 | 1.0 | 3.0 | 0.00 | 0.30 | 0.00 | 71 | 1013.1 |
| 20260905185529 | 90 | 64 | 1.0 | 3.0 | 0.00 | 0.30 | 0.00 | 69 | 1013.1 |
| 20260905184759 | 90 | 227 | 1.0 | 3.0 | 0.00 | 0.30 | 0.00 | 66 | 1013.2 |
| 20260905184300 | 90 | 195 | 1.0 | 3.0 | 0.00 | 0.30 | 0.00 | 71 | 1013.1 |
| 20260905183803 | 90 | 75 | 1.0 | 5.0 | 0.00 | 0.30 | 0.00 | 70 | 1013.3 |
| 20260905183759 | 90 | 65 | 1.0 | 3.0 | 0.00 | 0.30 | 0.00 | 68 | 1013.2 |
| 20260905182800 | 90 | 316 | 2.0 | 5.0 | 0.00 | 0.30 | 0.00 | 70 | 1013.4 |
| 20260905182259 | 89 | 113 | 2.0 | 6.0 | 0.00 | 0.30 | 0.00 | 71 | 1013.4 |
| 20260905181758 | 89 | 85 | 2.0 | 6.0 | 0.00 | 0.30 | 0.00 | 69 | 1013.4 |
| 20260905181259 | 90 | 101 | 2.0 | 6.0 | 0.00 | 0.30 | 0.00 | 69 | 1013.5 |
| 20260905180800 | 91 | 61 | 1.0 | 4.0 | 0.00 | 0.30 | 0.00 | 67 | 1013.5 |
| 20260905180259 | 91 | 186 | 0.0 | 3.0 | 0.00 | 0.30 | 0.00 | 67 | 1013.5 |
| 20260905175759 | 89 | 218 | 0.0 | 3.0 | 0.00 | 0.30 | 0.00 | 71 | 1013.6 |
| 20260905175257 | 88 | 278 | 0.0 | 1.0 | 0.00 | 0.31 | 0.00 | 76 | 1013.7 |
| 20260905174757 | 87 | 282 | 0.0 | 1.0 | 0.00 | 0.32 | 0.00 | 77 | 1013.7 |
| 20260905174529 | 87 | 292 | 0.0 | 1.0 | 0.00 | 0.33 | 0.00 | 77 | 1013.8 |
| 20260905173757 | 87 | 292 | 0.0 | 1.0 | 0.00 | 0.34 | 0.00 | 75 | 1013.8 |
| 20260905173257 | 87 | 292 | 0.0 | 2.0 | 0.00 | 0.35 | 0.00 | 79 | 1013.8 |
| 20260905172756 | 87 | 292 | 0.0 | 3.0 | 0.00 | 0.35 | 0.00 | 78 | 1013.8 |
| 20260905172255 | 87 | 291 | 0.0 | 3.0 | 0.00 | 0.35 | 0.00 | 78 | 1013.8 |
| 20260905171755 | 88 | 293 | 0.0 | 3.0 | 0.00 | 0.35 | 0.00 | 75 | 1013.9 |
| 20260905171255 | 88 | 268 | 0.0 | 4.0 | 0.00 | 0.35 | 0.00 | 73 | 1014.0 |
| 20260905170755 | 88 | 231 | 1.0 | 4.0 | 0.00 | 0.35 | 0.00 | 74 | 1014.0 |
| 20260905170525 | 88 | 34 | 1.0 | 3.0 | 0.00 | 0.35 | 0.00 | 72 | 1014.0 |
| 20260905165756 | 89 | 68 | 1.0 | 3.0 | 0.00 | 0.35 | 0.00 | 72 | 1014.0 |
| 20260905165255 | 89 | 342 | 1.0 | 4.0 | 0.00 | 0.35 | 0.00 | 72 | 1014.1 |
| 20260905164755 | 89 | 25 | 2.0 | 5.0 | 0.00 | 0.35 | 0.00 | 72 | 1014.0 |
| 20260905164253 | 89 | 307 | 1.0 | 5.0 | 0.00 | 0.35 | 0.00 | 70 | 1014.1 |
| 20260905163751 | 91 | 335 | 1.0 | 4.0 | 0.00 | 0.35 | 0.00 | 68 | 1014.2 |
| 20260905163251 | 91 | 104 | 1.0 | 3.0 | 0.00 | 0.35 | 0.00 | 68 | 1014.2 |
| 20260905162749 | 90 | 68 | 1.0 | 3.0 | 0.00 | 0.35 | 0.00 | 67 | 1014.2 |
| 20260905162521 | 89 | 98 | 1.0 | 3.0 | 0.00 | 0.35 | 0.00 | 68 | 1014.2 |
| 20260905161749 | 89 | 56 | 1.0 | 3.0 | 0.00 | 0.35 | 0.00 | 70 | 1014.2 |
| 20260905161249 | 88 | 349 | 1.0 | 4.0 | 0.00 | 0.35 | 0.00 | 75 | 1014.2 |
| 20260905160749 | 88 | 18 | 1.0 | 4.0 | 0.00 | 0.35 | 0.00 | 74 | 1014.2 |
| 20260905160249 | 87 | 35 | 0.0 | 2.0 | 0.00 | 0.35 | 0.00 | 75 | 1014.2 |
| 20260905155750 | 87 | 209 | 1.0 | 3.0 | 0.00 | 0.35 | 0.00 | 74 | 1014.2 |
| 20260905155249 | 88 | 209 | 1.0 | 3.0 | 0.00 | 0.35 | 0.00 | 71 | 1014.3 |
| 20260905154747 | 88 | 307 | 1.0 | 2.0 | 0.00 | 0.35 | 0.00 | 72 | 1014.4 |
| 20260905154247 | 88 | 2 | 1.0 | 2.0 | 0.00 | 0.35 | 0.00 | 72 | 1014.4 |
| 20260905153747 | 88 | 42 | 1.0 | 4.0 | 0.00 | 0.35 | 0.00 | 76 | 1014.3 |
| 20260905153248 | 87 | 94 | 1.0 | 4.0 | 0.00 | 0.35 | 0.00 | 75 | 1014.3 |
| 20260905153018 | 86 | 119 | 0.0 | 2.0 | 0.00 | 0.35 | 0.00 | 81 | 1014.3 |
| 20260905152247 | 86 | 259 | 0.0 | 1.0 | 0.00 | 0.35 | 0.00 | 81 | 1014.4 |
| 20260905151748 | 85 | 263 | 0.0 | 1.0 | 0.00 | 0.35 | 0.00 | 82 | 1014.4 |
| 20260905151517 | 85 | 262 | 0.0 | 0.0 | 0.00 | 0.35 | 0.00 | 82 | 1014.5 |
| 20260905150747 | 86 | 262 | 0.0 | 1.0 | 0.00 | 0.35 | 0.00 | 81 | 1014.5 |
| 20260905150247 | 86 | 262 | 0.0 | 1.0 | 0.00 | 0.35 | 0.00 | 81 | 1014.3 |
| 20260905145746 | 86 | 262 | 0.0 | 2.0 | 0.00 | 0.35 | 0.00 | 79 | 1014.4 |
| 20260905145515 | 86 | 262 | 0.0 | 2.0 | 0.00 | 0.35 | 0.00 | 78 | 1014.4 |
| 20260905144745 | 87 | 282 | 1.0 | 2.0 | 0.00 | 0.35 | 0.00 | 77 | 1014.2 |
| 20260905144245 | 87 | 283 | 1.0 | 2.0 | 0.00 | 0.35 | 0.00 | 77 | 1014.3 |
| 20260905143750 | 87 | 326 | 0.0 | 2.0 | 0.00 | 0.35 | 0.00 | 78 | 1014.2 |
| 20260905143746 | 87 | 75 | 1.0 | 2.0 | 0.00 | 0.35 | 0.00 | 77 | 1014.2 |
| 20260905142745 | 86 | 229 | 0.0 | 2.0 | 0.00 | 0.35 | 0.00 | 80 | 1014.3 |
| 20260905142515 | 86 | 329 | 0.0 | 1.0 | 0.00 | 0.35 | 0.00 | 80 | 1014.3 |
| 20260905141745 | 86 | 329 | 0.0 | 1.0 | 0.00 | 0.35 | 0.00 | 79 | 1014.3 |
| 20260905141246 | 86 | 330 | 0.0 | 1.0 | 0.00 | 0.35 | 0.00 | 79 | 1014.3 |
| 20260905140744 | 86 | 330 | 1.0 | 2.0 | 0.00 | 0.35 | 0.00 | 81 | 1014.3 |
| 20260905140243 | 85 | 330 | 1.0 | 2.0 | 0.00 | 0.35 | 0.00 | 81 | 1014.3 |
| 20260905135743 | 85 | 69 | 1.0 | 3.0 | 0.00 | 0.35 | 0.00 | 83 | 1014.3 |
| 20260905135243 | 85 | 72 | 1.0 | 3.0 | 0.00 | 0.35 | 0.00 | 83 | 1014.3 |
| 20260905134743 | 84 | 51 | 1.0 | 2.0 | 0.00 | 0.35 | 0.00 | 84 | 1014.2 |
| 20260905134243 | 84 | 51 | 1.0 | 2.0 | 0.00 | 0.35 | 0.00 | 84 | 1014.2 |
| 20260905133743 | 84 | 78 | 1.0 | 2.0 | 0.00 | 0.35 | 0.00 | 85 | 1014.1 |
| 20260905133243 | 84 | 29 | 1.0 | 2.0 | 0.00 | 0.35 | 0.00 | 85 | 1014.1 |
| 20260905132743 | 83 | 78 | 0.0 | 2.0 | 0.00 | 0.35 | 0.00 | 86 | 1014.1 |
| 20260905132243 | 83 | 99 | 0.0 | 2.0 | 0.00 | 0.35 | 0.00 | 88 | 1014.1 |
| 20260905131741 | 82 | 99 | 0.0 | 2.0 | 0.00 | 0.35 | 0.00 | 89 | 1014.1 |
| 20260905131241 | 82 | 79 | 0.0 | 2.0 | 0.00 | 0.35 | 0.00 | 89 | 1014.1 |
| 20260905130741 | 81 | 68 | 0.0 | 0.0 | 0.00 | 0.35 | 0.00 | 90 | 1014.1 |
| 20260905130241 | 81 | 68 | 0.0 | 0.0 | 0.00 | 0.35 | 0.00 | 91 | 1014.0 |
| 20260905125741 | 81 | 68 | 0.0 | 2.0 | 0.00 | 0.35 | 0.00 | 92 | 1014.0 |
| 20260905125241 | 80 | 68 | 0.0 | 2.0 | 0.00 | 0.35 | 0.00 | 94 | 1014.0 |
| 20260905124741 | 80 | 68 | 0.0 | 2.0 | 0.00 | 0.35 | 0.00 | 95 | 1013.9 |
| 20260905124241 | 79 | 68 | 0.0 | 1.0 | 0.00 | 0.35 | 0.00 | 95 | 1013.9 |
| 20260905124012 | 79 | 68 | 0.0 | 1.0 | 0.00 | 0.35 | 0.00 | 95 | 1013.8 |
| 20260905123239 | 78 | 68 | 0.0 | 0.0 | 0.00 | 0.35 | 0.00 | 95 | 1013.8 |
| 20260905122740 | 78 | 68 | 0.0 | 0.0 | 0.00 | 0.35 | 0.00 | 95 | 1013.8 |
| 20260905122239 | 79 | 68 | 0.0 | 0.0 | 0.00 | 0.35 | 0.00 | 96 | 1013.8 |
| 20260905121739 | 78 | 68 | 0.0 | 0.0 | 0.00 | 0.35 | 0.00 | 96 | 1013.7 |
| 20260905121239 | 77 | 68 | 0.0 | 0.0 | 0.00 | 0.35 | 0.00 | 96 | 1013.7 |
| 20260905120739 | 76 | 68 | 0.0 | 1.0 | 0.00 | 0.35 | 0.00 | 96 | 1013.7 |
| 20260905120239 | 76 | 68 | 0.0 | 1.0 | 0.00 | 0.35 | 0.00 | 96 | 1013.6 |
| 20260905120011 | 76 | 68 | 0.0 | 0.0 | 0.00 | 0.35 | 0.00 | 96 | 1013.6 |
| 20260905115239 | 75 | 68 | 0.0 | 0.0 | 0.00 | 0.35 | 0.00 | 96 | 1013.6 |
| 20260905114739 | 75 | 68 | 0.0 | 0.0 | 0.00 | 0.35 | 0.00 | 96 | 1013.5 |
| 20260905114237 | 75 | 68 | 0.0 | 1.0 | 0.00 | 0.35 | 0.00 | 96 | 1013.6 |
| 20260905113737 | 75 | 68 | 0.0 | 1.0 | 0.00 | 0.35 | 0.00 | 96 | 1013.5 |
| 20260905113508 | 75 | 68 | 0.0 | 1.0 | 0.00 | 0.35 | 0.00 | 96 | 1013.4 |
| 20260905112737 | 75 | 68 | 0.0 | 0.0 | 0.00 | 0.35 | 0.00 | 96 | 1013.4 |
| 20260905112237 | 76 | 68 | 0.0 | 1.0 | 0.00 | 0.35 | 0.00 | 96 | 1013.3 |
| 20260905112007 | 76 | 68 | 0.0 | 1.0 | 0.00 | 0.35 | 0.00 | 96 | 1013.3 |
| 20260905111237 | 76 | 68 | 0.0 | 1.0 | 0.00 | 0.35 | 0.00 | 96 | 1013.2 |
| 20260905110737 | 76 | 68 | 0.0 | 1.0 | 0.00 | 0.35 | 0.00 | 96 | 1013.2 |
| 20260905110237 | 76 | 68 | 0.0 | 1.0 | 0.00 | 0.35 | 0.00 | 96 | 1013.2 |
| 20260905105735 | 76 | 68 | 0.0 | 1.0 | 0.00 | 0.35 | 0.00 | 96 | 1013.1 |
| 20260905105235 | 76 | 68 | 0.0 | 1.0 | 0.00 | 0.35 | 0.00 | 96 | 1013.2 |
| 20260905105006 | 75 | 68 | 0.0 | 1.0 | 0.00 | 0.35 | 0.00 | 96 | 1013.3 |
| 20260905104235 | 75 | 68 | 0.0 | 1.0 | 0.00 | 0.35 | 0.00 | 96 | 1013.3 |
| 20260905103735 | 75 | 68 | 0.0 | 1.0 | 0.00 | 0.35 | 0.00 | 96 | 1013.3 |
| 20260905103235 | 75 | 68 | 0.0 | 1.0 | 0.00 | 0.35 | 0.00 | 96 | 1013.3 |
| 20260905102735 | 75 | 68 | 0.0 | 1.0 | 0.00 | 0.35 | 0.00 | 96 | 1013.2 |
| 20260905102239 | 75 | 68 | 1.0 | 2.0 | 0.00 | 0.35 | 0.00 | 96 | 1013.2 |
| 20260905102235 | 75 | 68 | 0.0 | 2.0 | 0.00 | 0.35 | 0.00 | 96 | 1013.2 |
| 20260905101235 | 75 | 77 | 0.0 | 2.0 | 0.00 | 0.35 | 0.00 | 96 | 1013.3 |
| 20260905100732 | 75 | 77 | 0.0 | 0.0 | 0.00 | 0.35 | 0.00 | 96 | 1013.3 |
| 20260905100233 | 75 | 77 | 0.0 | 1.0 | 0.00 | 0.35 | 0.00 | 96 | 1013.2 |
| 20260905095738 | 75 | 77 | 0.0 | 1.0 | 0.00 | 0.35 | 0.00 | 96 | 1013.2 |
| 20260905095232 | 75 | 77 | 0.0 | 1.0 | 0.00 | 0.35 | 0.00 | 96 | 1013.2 |
| 20260905094733 | 75 | 77 | 0.0 | 1.0 | 0.00 | 0.35 | 0.00 | 96 | 1013.1 |
| 20260905094233 | 75 | 77 | 0.0 | 0.0 | 0.00 | 0.35 | 0.00 | 96 | 1013.1 |
| 20260905093733 | 75 | 77 | 0.0 | 0.0 | 0.00 | 0.35 | 0.00 | 96 | 1013.1 |
| 20260905093233 | 75 | 77 | 0.0 | 1.0 | 0.00 | 0.35 | 0.00 | 96 | 1013.1 |
| 20260905093002 | 75 | 77 | 0.0 | 1.0 | 0.00 | 0.35 | 0.00 | 96 | 1013.0 |
| 20260905092231 | 75 | 77 | 0.0 | 1.0 | 0.00 | 0.35 | 0.00 | 96 | 1013.1 |
| 20260905091731 | 75 | 77 | 0.0 | 1.0 | 0.00 | 0.35 | 0.00 | 96 | 1013.1 |
| 20260905091231 | 75 | 77 | 0.0 | 1.0 | 0.00 | 0.35 | 0.00 | 96 | 1013.1 |
| 20260905090731 | 75 | 77 | 0.0 | 1.0 | 0.00 | 0.35 | 0.00 | 96 | 1013.1 |
| 20260905090232 | 75 | 77 | 1.0 | 1.0 | 0.00 | 0.35 | 0.00 | 96 | 1013.2 |
| 20260905085731 | 75 | 77 | 1.0 | 1.0 | 0.00 | 0.35 | 0.00 | 96 | 1013.1 |
| 20260905085230 | 75 | 77 | 1.0 | 2.0 | 0.00 | 0.35 | 0.00 | 96 | 1013.0 |
| 20260905084731 | 75 | 77 | 0.0 | 2.0 | 0.00 | 0.35 | 0.00 | 96 | 1013.0 |
| 20260905084501 | 75 | 75 | 0.0 | 0.0 | 0.00 | 0.35 | 0.00 | 96 | 1013.1 |
| 20260905083729 | 75 | 75 | 0.0 | 0.0 | 0.00 | 0.35 | 0.00 | 96 | 1013.1 |
| 20260905083229 | 75 | 75 | 0.0 | 0.0 | 0.00 | 0.35 | 0.00 | 96 | 1013.0 |
| 20260905082728 | 75 | 75 | 0.0 | 0.0 | 0.00 | 0.35 | 0.00 | 96 | 1013.0 |
| 20260905082229 | 75 | 75 | 0.0 | 0.0 | 0.00 | 0.35 | 0.00 | 96 | 1012.9 |
| 20260905081729 | 75 | 75 | 0.0 | 0.0 | 0.00 | 0.35 | 0.00 | 96 | 1012.9 |
| 20260905081229 | 75 | 75 | 0.0 | 0.0 | 0.00 | 0.35 | 0.00 | 96 | 1012.8 |
| 20260905080729 | 75 | 75 | 0.0 | 0.0 | 0.00 | 0.35 | 0.00 | 96 | 1012.7 |
| 20260905080229 | 75 | 75 | 0.0 | 0.0 | 0.00 | 0.35 | 0.00 | 96 | 1012.7 |
| 20260905075729 | 75 | 75 | 0.0 | 0.0 | 0.00 | 0.35 | 0.00 | 96 | 1012.8 |
| 20260905075228 | 75 | 75 | 0.0 | 0.0 | 0.00 | 0.35 | 0.00 | 96 | 1012.9 |
| 20260905074957 | 75 | 75 | 0.0 | 0.0 | 0.00 | 0.35 | 0.00 | 96 | 1012.9 |
| 20260905074227 | 75 | 75 | 0.0 | 0.0 | 0.00 | 0.35 | 0.00 | 96 | 1013.0 |
| 20260905073727 | 75 | 75 | 0.0 | 0.0 | 0.00 | 0.35 | 0.00 | 96 | 1013.0 |
| 20260905073227 | 75 | 75 | 0.0 | 0.0 | 0.00 | 0.35 | 0.00 | 96 | 1013.0 |
| 20260905072727 | 75 | 75 | 0.0 | 0.0 | 0.00 | 0.35 | 0.00 | 96 | 1013.0 |
| 20260905072227 | 75 | 75 | 0.0 | 0.0 | 0.00 | 0.35 | 0.00 | 96 | 1013.0 |
| 20260905071957 | 75 | 75 | 0.0 | 0.0 | 0.00 | 0.35 | 0.00 | 96 | 1012.9 |
| 20260905071226 | 75 | 75 | 0.0 | 0.0 | 0.00 | 0.35 | 0.00 | 96 | 1012.9 |
| 20260905070725 | 75 | 75 | 0.0 | 0.0 | 0.00 | 0.35 | 0.00 | 96 | 1013.0 |
| 20260905070226 | 75 | 75 | 0.0 | 0.0 | 0.00 | 0.35 | 0.00 | 96 | 1013.0 |
| 20260905065725 | 75 | 75 | 0.0 | 0.0 | 0.00 | 0.35 | 0.00 | 96 | 1012.9 |
| 20260905065225 | 75 | 75 | 0.0 | 0.0 | 0.00 | 0.35 | 0.00 | 96 | 1012.9 |
| 20260905064725 | 75 | 75 | 0.0 | 0.0 | 0.00 | 0.35 | 0.00 | 95 | 1012.8 |